Location: Fours
(44.3167°N, 6.7000°E)
Time: 13:13:22
(UTC+00:00)

Meteor 1-5 Rocket - Pass Details

Date: 30 November 2020
Orbit: 788 x 916 km, 81.2° (Epoch: 25 January)

Event Time Altitude Azimuth Distance (km) Brightness Sun altitude
Rises 18:05:18 0° 349° (NNW) 3,550 7.5 -22.6°
Reaches altitude 10° 18:07:48 10° 349° (NNW) 2,594 6.8 -23.0°
Maximum altitude 18:13:45 86° 261° (W) 896 4.2 -24.1°
Drops below altitude 10° 18:19:28 10° 173° (S) 2,502 6.6 -25.1°
Sets 18:21:50 0° 173° (S) 3,416 7.4 -25.5°
